sat.trackr.live / text

‹ back to catalog

STARLINK-30989

NORAD 58510 · 2023-191C

PAYLOAD ACTIVE UNKNOWN

§ Identity

Operator
Country
US
Launch date
2023-12-07
Launch site
AFETR
Launch vehicle
Mass (kg)
RCS (m²)

Purposes: comms

External: N2YO · Heavens-Above · Gunter

§ Orbital elements

Epoch: 2026-09-20T21:41:00.444768Z

Period
94.27 min
Inclination
43.0023°
Eccentricity
0.0001308
Mean motion
15.27578901 rev/d
Perigee alt
482.2 km
Apogee alt
483.9 km
Semi-major
6,861.2 km
B*
2.1198e-5
RAAN
81.2361°
Arg perigee
265.2651°
Mean anomaly
94.8051°
Rev number
15,535

§ Raw data

STARLINK-309891 58510U 23191C   26263.90347737  .00000321  00000+0  21198-4 0  99942 58510  43.0023  81.2361 0001308 265.2651  94.8051 15.27578901155354

JSON: /api/v1/satellites/58510 · /tle

For live sub-satellite position, see the globe view (requires WebGL).

§ Visibility from observer

Set your observer location to see the next 7 days of passes ≥ 10°. The values pass through the URL so the page stays shareable.

No JS? Fill the form by hand. The geolocation button needs JavaScript.